| time (UTC) | temp F | wind direction | speed MPH | gust MPH | rain 1hr in | rain 24hr in | rain mn in | humidity % | barometer mb |
| 20260509221005 | 64 | 34 | 3.0 | 9.0 | 0.00 | 0.00 | 0.00 | 63 | 999.8 |
| 20260509215007 | 62 | 24 | 3.0 | 9.0 | 0.00 | 0.00 | 0.00 | 66 | 1000.0 |
| 20260509214006 | 61 | 33 | 5.0 | 10.0 | 0.00 | 0.00 | 0.00 | 67 | 1000.3 |
| 20260509213007 | 60 | 26 | 3.0 | 9.0 | 0.00 | 0.00 | 0.00 | 72 | 1000.6 |
| 20260509212006 | 59 | 30 | 2.0 | 9.0 | 0.00 | 0.00 | 0.00 | 73 | 1001.2 |
| 20260509211006 | 58 | 31 | 1.0 | 9.0 | 0.00 | 0.00 | 0.00 | 75 | 1001.7 |
| 20260509210006 | 58 | 36 | 2.0 | 7.0 | 0.00 | 0.00 | 0.00 | 75 | 1002.4 |
| 20260509205007 | 57 | 36 | 2.0 | 9.0 | 0.00 | 0.00 | 0.00 | 75 | 1003.2 |
| 20260509204005 | 56 | 34 | 3.0 | 7.0 | 0.00 | 0.00 | 0.00 | 75 | 1004.2 |
| 20260509203006 | 55 | 35 | 3.0 | 7.0 | 0.00 | 0.00 | 0.00 | 77 | 1004.0 |
| 20260509202005 | 55 | 22 | 3.0 | 9.0 | 0.00 | 0.00 | 0.00 | 77 | 1004.1 |
| 20260509201006 | 54 | 30 | 4.0 | 9.0 | 0.00 | 0.00 | 0.00 | 78 | 1004.3 |
| 20260509200006 | 53 | 36 | 2.0 | 9.0 | 0.00 | 0.00 | 0.00 | 79 | 1004.3 |
| 20260509194006 | 50 | 46 | 2.0 | 3.0 | 0.00 | 0.00 | 0.00 | 84 | 1004.1 |
| 20260509193006 | 48 | 0 | 0.0 | 2.0 | 0.00 | 0.00 | 0.00 | 87 | 1004.1 |
| 20260509192005 | 48 | 0 | 0.0 | 2.0 | 0.00 | 0.00 | 0.00 | 87 | 1004.0 |
| 20260509191005 | 48 | 0 | 0.0 | 2.0 | 0.00 | 0.00 | 0.00 | 87 | 1003.8 |
| 20260509190006 | 48 | 0 | 0.0 | 2.0 | 0.00 | 0.00 | 0.00 | 87 | 1003.8 |
| 20260509185005 | 49 | 0 | 0.0 | 2.0 | 0.00 | 0.00 | 0.00 | 85 | 1003.7 |
| 20260509184005 | 50 | 0 | 0.0 | 3.0 | 0.00 | 0.00 | 0.00 | 84 | 1003.6 |
| 20260509183006 | 49 | 0 | 0.0 | 2.0 | 0.00 | 0.00 | 0.00 | 84 | 1003.2 |
| 20260509182006 | 50 | 43 | 1.0 | 3.0 | 0.00 | 0.00 | 0.00 | 84 | 1003.3 |
| 20260509181006 | 49 | 0 | 0.0 | 3.0 | 0.00 | 0.00 | 0.00 | 85 | 1003.3 |
| 20260509180006 | 49 | 45 | 1.0 | 3.0 | 0.00 | 0.00 | 0.00 | 86 | 1003.1 |
| 20260509175006 | 50 | 43 | 1.0 | 3.0 | 0.00 | 0.00 | 0.00 | 85 | 1003.0 |
| 20260509174005 | 51 | 0 | 0.0 | 3.0 | 0.00 | 0.00 | 0.00 | 84 | 1002.6 |
| 20260509173006 | 49 | 1 | 1.0 | 3.0 | 0.00 | 0.00 | 0.00 | 89 | 1002.9 |
| 20260509172006 | 49 | 0 | 0.0 | 2.0 | 0.00 | 0.00 | 0.00 | 88 | 1002.4 |
| 20260509170006 | 51 | 0 | 0.0 | 2.0 | 0.00 | 0.00 | 0.00 | 86 | 1002.3 |
| 20260509165006 | 53 | 0 | 0.0 | 6.0 | 0.00 | 0.00 | 0.00 | 82 | 1002.3 |
| 20260509164006 | 54 | 33 | 1.0 | 10.0 | 0.00 | 0.01 | 0.00 | 80 | 1001.6 |
| 20260509163006 | 54 | 37 | 3.0 | 9.0 | 0.00 | 0.01 | 0.00 | 80 | 1001.7 |
| 20260509161006 | 54 | 0 | 0.0 | 3.0 | 0.00 | 0.02 | 0.00 | 81 | 1002.1 |
| 20260509160007 | 55 | 32 | 2.0 | 12.0 | 0.00 | 0.02 | 0.00 | 78 | 1001.7 |
| 20260509155005 | 55 | 30 | 3.0 | 7.0 | 0.00 | 0.02 | 0.00 | 78 | 1001.8 |
| 20260509154005 | 55 | 34 | 3.0 | 9.0 | 0.00 | 0.02 | 0.00 | 79 | 1001.7 |
| 20260509153007 | 52 | 29 | 1.0 | 6.0 | 0.00 | 0.02 | 0.00 | 85 | 1001.8 |
| 20260509152007 | 51 | 0 | 0.0 | 2.0 | 0.00 | 0.02 | 0.00 | 91 | 1001.8 |
| 20260509151006 | 51 | 0 | 0.0 | 2.0 | 0.00 | 0.02 | 0.00 | 91 | 1002.1 |
| 20260509150007 | 51 | 0 | 0.0 | 2.0 | 0.00 | 0.02 | 0.00 | 91 | 1002.0 |
| 20260509145006 | 51 | 0 | 0.0 | 2.0 | 0.00 | 0.02 | 0.00 | 91 | 1001.7 |
| 20260509143006 | 52 | 0 | 0.0 | 0.0 | 0.00 | 0.02 | 0.00 | 90 | 1001.9 |
| 20260509141007 | 52 | 0 | 0.0 | 0.0 | 0.00 | 0.02 | 0.00 | 88 | 1001.9 |
| 20260509135006 | 54 | 0 | 0.0 | 3.0 | 0.00 | 0.02 | 0.00 | 86 | 1001.6 |
| 20260509132005 | 53 | 43 | 3.0 | 6.0 | 0.00 | 0.02 | 0.00 | 87 | 1000.9 |
| 20260509131007 | 54 | 0 | 0.0 | 3.0 | 0.00 | 0.02 | 0.00 | 88 | 1001.5 |
| 20260509125005 | 54 | 0 | 0.0 | 0.0 | 0.00 | 0.02 | 0.00 | 88 | 1001.1 |
| 20260509123008 | 54 | 0 | 0.0 | 0.0 | 0.00 | 0.02 | 0.00 | 86 | 1000.9 |
| 20260509121006 | 56 | 0 | 0.0 | 3.0 | 0.00 | 0.02 | 0.00 | 82 | 1000.8 |
| 20260509120010 | 56 | 0 | 0.0 | 7.0 | 0.00 | 0.02 | 0.00 | 82 | 1000.9 |
| 20260509115005 | 56 | 45 | 2.0 | 3.0 | 0.00 | 0.02 | 0.02 | 82 | 1001.1 |
| 20260509114006 | 55 | 0 | 0.0 | 0.0 | 0.00 | 0.02 | 0.02 | 83 | 1001.1 |
| 20260509113006 | 57 | 0 | 0.0 | 0.0 | 0.00 | 0.02 | 0.02 | 81 | 1001.2 |
| 20260509112007 | 58 | 0 | 0.0 | 3.0 | 0.00 | 0.02 | 0.02 | 77 | 1001.3 |
| 20260509111005 | 58 | 0 | 0.0 | 2.0 | 0.00 | 0.02 | 0.02 | 78 | 1001.5 |
| 20260509110006 | 58 | 45 | 1.0 | 3.0 | 0.00 | 0.02 | 0.02 | 78 | 1001.9 |
| 20260509105005 | 57 | 0 | 0.0 | 2.0 | 0.00 | 0.02 | 0.02 | 80 | 1002.0 |
| 20260509104005 | 56 | 0 | 0.0 | 6.0 | 0.00 | 0.02 | 0.02 | 81 | 1002.1 |
| 20260509102006 | 55 | 0 | 0.0 | 0.0 | 0.00 | 0.02 | 0.02 | 85 | 1002.4 |
| 20260509101006 | 56 | 0 | 0.0 | 0.0 | 0.00 | 0.02 | 0.02 | 83 | 1002.6 |
| 20260509100006 | 56 | 0 | 0.0 | 2.0 | 0.00 | 0.02 | 0.02 | 83 | 1002.7 |
| 20260509093006 | 57 | 0 | 0.0 | 0.0 | 0.00 | 0.02 | 0.02 | 80 | 1002.9 |
| 20260509092007 | 59 | 0 | 0.0 | 0.0 | 0.00 | 0.02 | 0.02 | 76 | 1002.7 |
| 20260509091006 | 60 | 0 | 0.0 | 9.0 | 0.00 | 0.02 | 0.02 | 73 | 1002.8 |
| 20260509090006 | 61 | 38 | 4.0 | 9.0 | 0.00 | 0.02 | 0.02 | 71 | 1002.3 |
| 20260509085005 | 61 | 34 | 2.0 | 9.0 | 0.00 | 0.02 | 0.02 | 72 | 1002.4 |
| 20260509084006 | 60 | 35 | 3.0 | 9.0 | 0.00 | 0.02 | 0.02 | 73 | 1002.3 |
| 20260509083005 | 59 | 13 | 2.0 | 10.0 | 0.00 | 0.02 | 0.02 | 75 | 1002.1 |
| 20260509081005 | 59 | 26 | 4.0 | 9.0 | 0.00 | 0.02 | 0.02 | 76 | 1001.8 |
| 20260509080006 | 61 | 33 | 1.0 | 10.0 | 0.00 | 0.02 | 0.02 | 73 | 1001.9 |
| 20260509075005 | 60 | 39 | 2.0 | 6.0 | 0.00 | 0.02 | 0.02 | 72 | 1002.1 |
| 20260509074005 | 61 | 31 | 2.0 | 7.0 | 0.00 | 0.02 | 0.02 | 70 | 1001.8 |
| 20260509072006 | 61 | 34 | 5.0 | 10.0 | 0.00 | 0.02 | 0.02 | 72 | 1001.4 |
| 20260509071005 | 60 | 39 | 3.0 | 7.0 | 0.00 | 0.02 | 0.02 | 75 | 1001.4 |
| 20260509070006 | 59 | 47 | 2.0 | 3.0 | 0.00 | 0.02 | 0.02 | 77 | 1001.1 |
| 20260509065005 | 59 | 0 | 0.0 | 2.0 | 0.00 | 0.02 | 0.02 | 77 | 1001.2 |
| 20260509064006 | 60 | 0 | 0.0 | 0.0 | 0.00 | 0.02 | 0.02 | 76 | 1001.4 |
| 20260509063007 | 61 | 0 | 0.0 | 3.0 | 0.00 | 0.02 | 0.02 | 74 | 1000.8 |
| 20260509062005 | 62 | 24 | 1.0 | 6.0 | 0.00 | 0.02 | 0.02 | 73 | 1000.7 |
| 20260509061004 | 62 | 43 | 1.0 | 9.0 | 0.00 | 0.02 | 0.02 | 72 | 1000.2 |
| 20260509060007 | 71 | 22 | 5.0 | 10.0 | 0.00 | 0.02 | 0.02 | 58 | 991.1 |
| 20260509055005 | 71 | 22 | 5.0 | 10.0 | 0.00 | 0.02 | 0.02 | 58 | 991.1 |
| 20260509054007 | 71 | 22 | 5.0 | 10.0 | 0.00 | 0.02 | 0.02 | 58 | 991.1 |
| 20260509053006 | 71 | 22 | 5.0 | 10.0 | 0.00 | 0.02 | 0.02 | 58 | 991.1 |
| 20260509052006 | 71 | 22 | 5.0 | 10.0 | 0.00 | 0.02 | 0.02 | 58 | 991.1 |
| 20260509051008 | 71 | 22 | 5.0 | 10.0 | 0.00 | 0.02 | 0.02 | 58 | 991.1 |
| 20260509050006 | 71 | 22 | 5.0 | 10.0 | 0.00 | 0.02 | 0.02 | 58 | 991.1 |
| 20260509045005 | 71 | 22 | 5.0 | 10.0 | 0.00 | 0.02 | 0.02 | 58 | 991.1 |
| 20260509044006 | 71 | 22 | 5.0 | 10.0 | 0.00 | 0.02 | 0.02 | 58 | 991.1 |
| 20260509043006 | 71 | 22 | 5.0 | 10.0 | 0.00 | 0.02 | 0.02 | 58 | 991.1 |
| 20260509041007 | 71 | 22 | 5.0 | 10.0 | 0.00 | 0.02 | 0.02 | 58 | 991.1 |
| 20260509040006 | 71 | 22 | 5.0 | 10.0 | 0.00 | 0.02 | 0.02 | 58 | 991.1 |
| 20260509035006 | 71 | 22 | 5.0 | 10.0 | 0.00 | 0.02 | 0.02 | 58 | 991.1 |
| 20260509033007 | 71 | 22 | 5.0 | 10.0 | 0.00 | 0.02 | 0.02 | 58 | 991.1 |
| 20260509031006 | 71 | 22 | 5.0 | 10.0 | 0.00 | 0.02 | 0.02 | 58 | 991.1 |
| 20260509030006 | 71 | 22 | 5.0 | 10.0 | 0.00 | 0.02 | 0.02 | 58 | 991.1 |
| 20260509025006 | 71 | 22 | 5.0 | 10.0 | 0.00 | 0.02 | 0.02 | 58 | 991.1 |
| 20260509023008 | 71 | 22 | 5.0 | 10.0 | 0.00 | 0.02 | 0.02 | 58 | 991.1 |
| 20260509022006 | 72 | 25 | 2.0 | 12.0 | 0.00 | 0.02 | 0.02 | 55 | 990.9 |
| 20260509021006 | 72 | 41 | 3.0 | 14.0 | 0.00 | 0.02 | 0.02 | 55 | 991.0 |
| 20260509020007 | 72 | 331 | 4.0 | 17.0 | 0.00 | 0.02 | 0.02 | 54 | 991.1 |
| 20260509014006 | 72 | 29 | 10.0 | 16.0 | 0.00 | 0.02 | 0.02 | 54 | 991.3 |
| 20260509013007 | 72 | 15 | 4.0 | 10.0 | 0.00 | 0.02 | 0.02 | 55 | 991.3 |
| 20260509012006 | 72 | 27 | 4.0 | 14.0 | 0.00 | 0.02 | 0.02 | 54 | 991.1 |
| 20260509011006 | 72 | 32 | 4.0 | 12.0 | 0.00 | 0.02 | 0.02 | 55 | 991.5 |
| 20260509010009 | 72 | 30 | 6.0 | 17.0 | 0.00 | 0.02 | 0.02 | 55 | 991.5 |
| 20260509005008 | 72 | 34 | 6.0 | 17.0 | 0.00 | 0.02 | 0.02 | 57 | 991.2 |
| 20260509003007 | 72 | 33 | 5.0 | 10.0 | 0.00 | 0.02 | 0.02 | 56 | 992.0 |
| 20260509002005 | 72 | 33 | 6.0 | 17.0 | 0.00 | 0.02 | 0.02 | 56 | 992.8 |
| 20260509001006 | 72 | 40 | 4.0 | 17.0 | 0.00 | 0.02 | 0.02 | 58 | 993.0 |
| 20260509000006 | 71 | 32 | 4.0 | 14.0 | 0.00 | 0.02 | 0.02 | 57 | 993.3 |
| 20260508234006 | 71 | 27 | 4.0 | 14.0 | 0.00 | 0.02 | 0.02 | 59 | 993.8 |
| 20260508233007 | 71 | 33 | 5.0 | 16.0 | 0.00 | 0.02 | 0.02 | 59 | 994.0 |
| 20260508231006 | 71 | 20 | 6.0 | 14.0 | 0.00 | 0.02 | 0.02 | 60 | 994.1 |
| 20260508230006 | 70 | 35 | 6.0 | 16.0 | 0.00 | 0.02 | 0.02 | 60 | 994.1 |
| 20260508224006 | 69 | 27 | 6.0 | 14.0 | 0.00 | 0.02 | 0.02 | 62 | 994.5 |
| 20260508223006 | 70 | 30 | 4.0 | 14.0 | 0.00 | 0.02 | 0.02 | 61 | 995.0 |